Погода в Рязани

Погода в Рязани : погода сейчас, прогноз погоды и архив. Всё, что Вы хотите узнать о погоде в Рязани!

Хотите узнать прогноз погоды в Рязани? Тогда Вам сюда: Погода в Рязани

Поиск расширенной информации на нашем сайте:

Другие новости

Новости СМИ2

Главная страница сайта

Новости сайта

02.10.2013

Напоминаем, что на нашем новом сайте вы можете получить высокодетализированные прогнозы погоды по пунктам России, СНГ и мира (включающие важные для авиации метеовеличины, такие как направление и скорость ветра, видимость, явления погоды, количество и форма облачности, нижняя и верхняя граница облачности), а также ознакомиться с разнообразными материалами по авиационной метеорологии и подборкой полезных ссылок на эту тему.

Сайт Метеоцентр.Азия посвящён разработке технологий оптимизации авиаметеорологического обслуживания, включая проектирование и перспективное создание нескольких автоматизированных авиаметеорологических систем:
- система выпуска высокодетальных прогностических карт явлений погоды для нижнего воздушного пространства по России и ближнему зарубежью;
- система верификации прогнозов TAF (выпускаемых синоптиками официальных АМСГ РФ и ближнего зарубежья) и AUTOTAF (выпускаемых сайтом Метеоцентр.Азия) - выявление ошибок, онлайн-сопоставление с фактической погодой METAR, автоматическое внесение коррективов в прогнозы при резком отклонении фактической погоды от прогноза, подсчёт оправдываемости прогнозов по элементам и в целом;
- система обработки, анализа и отображения авиаметеорологической информации для применения провайдерами метеорологической информации.

Рекомендуем: Информация medicine на нашем сайте.

Погода в Рязани - сегодня

Время (UTC), дата Ветер
(°,м/с) 
Видим.   Явления Облачность Т
(°С)
Тd
(°С)
f(%) Тe
(°С)
Pmin
(гПа)
dP
(гПа)
Po
(мм)
O2
(г/м3)
Тmin Tmax R s Состояние
почвы
21 19.02.17 230 (ЮЗ) 20000 м    10/10 600 м 
[Sc]
+0.9 -1.7 83 -1  1009.4  -1.8  742  298           
00 20.02.17 230 (ЮЗ) 4{10}  20000 м    10/10 600 м 
[Sc]
+1.3 -1.2 83 -1  1008.2  -1.2  742  297           
03 20.02.17 240 (ЮЗ) 5-10{12}  20000 м    10/10 600 м 
[Sc]
+1.2 -1.3 83 -2  1007  -1.1  741  297  +0.7      29  равномерный
мокрый или
старый снег
100% 
06 20.02.17 240 (ЮЗ) 4{14}  20000 м    10/10 600 м 
[Sc]
+1.3 -1.1 84 -1  1006.7  -0.3  740  297           
09 20.02.17 230 (ЮЗ) 5-10{12}  20000 м    10/10 600 м 
[Sc]
+2.4 -0.8 79 1005.9  -0.7  740  296           
12 20.02.17 230 (ЮЗ) 5-10{12}  20000 м    10/10 600 м 
[Sc]
+1.8 -0.5 85 -1  1005.3  -0.6  740  296           
15 20.02.17 230 (ЮЗ) 5-10{13}  20000 м    10/10 600 м 
[Sc]
+1.6 -0.6 85 -1  1004.3  -1  739  296    +2.4       
18 20.02.17 230 (ЮЗ) 5-10{11}  20000 м    10/10 600 м 
[Sc]
+1.3 -1.4 82 -1  1002.5  -1.7  737  296           
21 20.02.17 220 (ЮЗ) 5-10{13}  20000 м    10/10 600 м 
[Sc]
+1.7 -1.2 81 -1  1000.6  -1.9  736  295           
00 21.02.17 220 (ЮЗ) 4{12}  20000 м    10/10 600 м 
[Sc]
+1.1 -1.1 85 -1  998.3  -2.3  734  295           
03 21.02.17 210 (ЮЗ) 6-10{12}  20000 м    10/10 600 м 
[Sc]
+0.4 -1.5 87 -3  995.4  -2.8  732  295  +0.3      25  равномерный
мокрый или
старый снег
100% 
06 21.02.17 220 (ЮЗ) 5-10{13}  2000 м  снег  10/10 300 м 
[Ns]
-0.1 -1.1 93 -3  993.4  -2  731  295  -0.1         
09 21.02.17 220 (ЮЗ) 6-12{13}  1000 м  снег  10/10 300 м 
[Ns]
-0.1 -1.1 93 -4  992.1  -1.3  730  294           
12 21.02.17 220 (ЮЗ) 5{13}  1000 м  снег  10/10 300 м 
[Ns]
+0.3 -0.1 97 -3  990.5  -1.6  728  293           
15 21.02.17 220 (ЮЗ) 5{11}  4000 м  слаб. снег  10/10 300 м 
[Ns]
+0.3 -0.1 97 -3  989.5  -0.9  728  293    +0.5     
18 21.02.17 220 (ЮЗ) 5{11}  4000 м  слаб. снег  10/10 300 м 
[Ns]
+0.4 +0.1 98 -3  989.7  0.1  728  293           
21 21.02.17 220 (ЮЗ) 4{11}  4000 м  дымка{снег}  10/10 300 м 
[Sc]
+1 +0.4 96 -1  990.3  0.7  728  292           
00 22.02.17 210 (ЮЗ) 4000 м  дымка{снег}  10/10 300 м 
[Sc]
+1.1 +0.5 96 991.3  0.7  729  292           
03 22.02.17 210 (ЮЗ) 4000 м  слаб. снег  10/10 300 м 
[Sc]
+0.6 +0.2 97 991.9  0.5  730  293  +0.2    0.8  26  равномерный
мокрый или
старый снег
100% 
06 22.02.17 тихо ()   2000 м  снег{дождь}  10/10 300 м 
[Ns]
+0.3 -0.1 97 993.1  1.2  730  294  +0.2         
09 22.02.17 360 (С) 2000 м  снег  10/10 300 м 
[Ns]
+1.5 +1 96 +2  994  0.9  731  293           
12 22.02.17 010 (С) 2000 м  снег{дождь}  10/10 300 м 
[Ns]
+0.2 -0.3 96 -2  995.3  1.2  732  295           
15 22.02.17 360 (С) 4000 м  слаб. снег  10/10 300 м 
[Ns]
-2.5 -2.9 97 -5  997.5  1.9  734  299    +2.2     
18 22.02.17 350 (С) 4000 м  дымка{снег}  10/10 300 м 
[Sc]
-3.8 -4.6 94 -6  998.6  734  301           
21 22.02.17 340 (С) 10 км    10/10 300 м 
[Sc]
-4.6 -5.8 91 -4  998.9  0.2  734  302           
Время (UTC), дата Ветер
(°,м/с) 
Видим.   Явления Облачность Т
(°С)
Тd
(°С)
f(%) Тe
(°С)
Pmin
(гПа)
dP
(гПа)
Po
(мм)
O2
(г/м3)
Тmin Tmax R s Состояние
почвы

Для получения пояснительной информации подведите курсор к названию столбца.

ПОГОДА в Рязани - архив

Всё, что Вы хотите узнать о погоде в Рязани - удобно и подробно!

Выберите нужную дату (начиная с 1 января 2015* года) и нажмите кнопку "Найти".
Будут отображены архивные сводки погоды по пункту Рязань, начиная с указанной даты.


Отображать данные в формате CSV (для использования в таблицах Excel)


Внимание! Наш архив погоды предназначен исключительно для личного некоммерческого использования в познавательных целях. Если Вам необходимы официальные справки о состоянии погоды (для производственных, юридических, коммерческих и т.п. целей), обращайтесь в органы Росгидромета.

*Примечание: данная дата относится к архиву по метеостанциям СССР (Россия, СНГ, Балтия).
Архив по метеостанциям Зарубежной Европы и Азии (кроме Китая) хранится 10 дней, по другим регионам земного шара (Китай, Африка, Америка, Австралия, Океания) - 1 день.

Рязань - район местоположения метеостанции


Название, широта, долгота, высота метеостанции:
Рязань 54.6°ш. 39.7°д. 158 м над ур. моря [Российская Федерация]

Дополнительная информация

В oтличие oт бoльшинства пoгoдных сайтoв мы публикуем пoдрoбную метеoинфoрмацию в детальнoм прoфессиoнальнoм фoрмате.

Характеристики температуры и влажнoсти вoздуха измеряются на высoте 2 м в тени вдали oт зданий и деревьев.
Скoрoсть ветра измеряется на высoте 10 м (на урoвне рoста челoвека скoрoсть ветра ниже в 1.5-2 раза). Если метеoстанция нахoдится в гoрoде или в лесу, тo скoрoсть ветра занижена на 2-4 м/с пo сравнению с oткрытым местoм. Скoрoсть ветра над акватoриями крупных рек и oзёр, а также на вершинах хoлмoв на 2-5 м/с выше, чем в oбычных услoвиях.
Атмoсфернoе давление в разных тoчках местнoсти мoжет значительнo oтличаться oт давления на метеoстанции, в зависимoсти oт услoвий рельефа (при пoдъёме на 10 м давление пoнижается примернo на 1 мм рт.ст.).